Вернуться в каталог

NOAA 16 DEB

АктивенPO
NORAD 41526·DEBRIS·🇺🇸 United States

Запущен Sep 21, 2000 с Vandenberg Space Force Base

Loading…

Ближайшие Пролёты (ближайшие 24 часа)

TLE

СвежийSource: Space-Track

Эпоха: Sep 14, 2026, 01:13 UTC

1 41526U 00055NA  26257.05077090  .00004715  00000-0  11893-2 0  9999
2 41526  98.9913 107.3497 0017428 293.1557  66.7799 14.51505436545534

Отслеживайте NOAA 16 DEB в реальном времени с AllMySat

Download on the App Store